Time,TemperatureF,DewpointF,PressureIn,WindDirection,WindDirectionDegrees,WindSpeedMPH,WindSpeedGustMPH,Humidity,HourlyPrecipIn,Conditions,Clouds,dailyrainin,SoftwareType,DateUTC
2013-02-28 00:01:00,50.0,37.0,30.08,West,260,0.0,3.0,60,0.00,,,0.00,,2013-02-28 06:01:00,
2013-02-28 00:11:00,50.0,37.0,30.08,West,260,0.0,3.0,60,0.00,,,0.00,,2013-02-28 06:11:00,
2013-02-28 00:22:00,50.0,37.0,30.09,WNW,295,0.0,1.0,61,0.00,,,0.00,,2013-02-28 06:22:00,
2013-02-28 00:32:00,49.0,37.0,30.09,WNW,300,0.0,2.0,63,0.00,,,0.00,,2013-02-28 06:32:00,
2013-02-28 00:42:00,49.0,37.0,30.09,WNW,300,0.0,2.0,63,0.00,,,0.00,,2013-02-28 06:42:00,
2013-02-28 00:51:00,48.0,36.0,30.09,WNW,299,0.0,1.0,64,0.00,,,0.00,,2013-02-28 06:51:00,
2013-02-28 01:01:00,48.0,36.0,30.09,NW,321,0.0,4.0,64,0.00,,,0.00,,2013-02-28 07:01:00,
2013-02-28 01:11:00,48.0,36.0,30.09,NW,321,0.0,4.0,64,0.00,,,0.00,,2013-02-28 07:11:00,
2013-02-28 01:21:00,48.0,36.0,30.09,NNW,335,1.0,3.0,62,0.00,,,0.00,,2013-02-28 07:21:00,
2013-02-28 01:31:00,47.0,35.0,30.09,NW,322,0.0,2.0,63,0.00,,,0.00,,2013-02-28 07:31:00,
2013-02-28 01:41:00,47.0,35.0,30.09,NW,322,0.0,2.0,63,0.00,,,0.00,,2013-02-28 07:41:00,
2013-02-28 01:52:00,47.0,35.0,30.09,NNW,335,0.0,1.0,63,0.00,,,0.00,,2013-02-28 07:52:00,
2013-02-28 02:01:00,47.0,35.0,30.09,NNW,335,0.0,1.0,63,0.00,,,0.00,,2013-02-28 08:01:00,
2013-02-28 02:11:00,47.0,35.0,30.09,NNW,335,0.0,1.0,63,0.00,,,0.00,,2013-02-28 08:11:00,
2013-02-28 02:22:00,46.0,35.0,30.10,NNW,335,0.0,0.0,66,0.00,,,0.00,,2013-02-28 08:22:00,
2013-02-28 02:32:00,45.0,35.0,30.10,NNW,336,0.0,0.0,68,0.00,,,0.00,,2013-02-28 08:32:00,
2013-02-28 02:42:00,45.0,35.0,30.10,NNW,336,0.0,0.0,68,0.00,,,0.00,,2013-02-28 08:42:00,
2013-02-28 02:52:00,44.0,36.0,30.10,NNW,336,0.0,0.0,72,0.00,,,0.00,,2013-02-28 08:52:00,
2013-02-28 03:03:00,44.0,36.0,30.10,NW,311,0.0,1.0,73,0.00,,,0.00,,2013-02-28 09:03:00,
2013-02-28 03:11:00,44.0,36.0,30.10,NW,311,0.0,1.0,73,0.00,,,0.00,,2013-02-28 09:11:00,
2013-02-28 03:22:00,42.0,36.0,30.10,NW,311,0.0,0.0,79,0.00,,,0.00,,2013-02-28 09:22:00,
2013-02-28 03:32:00,42.0,36.0,30.10,NW,311,0.0,0.0,79,0.00,,,0.00,,2013-02-28 09:32:00,
2013-02-28 03:42:00,42.0,36.0,30.10,NW,311,0.0,0.0,79,0.00,,,0.00,,2013-02-28 09:42:00,
2013-02-28 03:52:00,40.0,34.0,30.09,NW,311,0.0,1.0,79,0.00,,,0.00,,2013-02-28 09:52:00,
2013-02-28 04:02:00,41.0,37.0,30.10,NW,312,0.0,0.0,84,0.00,,,0.00,,2013-02-28 10:02:00,
2013-02-28 04:11:00,41.0,37.0,30.10,NW,312,0.0,0.0,84,0.00,,,0.00,,2013-02-28 10:11:00,
2013-02-28 04:22:00,41.0,35.0,30.09,West,269,0.0,1.0,79,0.00,,,0.00,,2013-02-28 10:22:00,
2013-02-28 04:32:00,40.0,34.0,30.09,NW,304,0.0,1.0,79,0.00,,,0.00,,2013-02-28 10:32:00,
2013-02-28 04:42:00,40.0,34.0,30.09,NW,304,0.0,1.0,79,0.00,,,0.00,,2013-02-28 10:42:00,
2013-02-28 04:52:00,41.0,34.0,30.09,NW,321,1.0,3.0,77,0.00,,,0.00,,2013-02-28 10:52:00,
2013-02-28 05:01:00,42.0,34.0,30.09,NW,314,0.0,3.0,74,0.00,,,0.00,,2013-02-28 11:01:00,
2013-02-28 05:11:00,42.0,34.0,30.09,NW,314,0.0,3.0,74,0.00,,,0.00,,2013-02-28 11:11:00,
2013-02-28 05:22:00,42.0,34.0,30.09,NW,314,0.0,3.0,74,0.00,,,0.00,,2013-02-28 11:22:00,
2013-02-28 05:32:00,42.0,35.0,30.10,West,271,0.0,1.0,75,0.00,,,0.00,,2013-02-28 11:32:00,
2013-02-28 05:42:00,42.0,35.0,30.10,West,271,0.0,1.0,75,0.00,,,0.00,,2013-02-28 11:42:00,
2013-02-28 05:52:00,41.0,34.0,30.11,WNW,291,0.0,3.0,76,0.00,,,0.00,,2013-02-28 11:52:00,
2013-02-28 06:02:00,40.0,34.0,30.11,WNW,300,0.0,1.0,78,0.00,,,0.00,,2013-02-28 12:02:00,
2013-02-28 06:11:00,40.0,34.0,30.11,WNW,300,0.0,1.0,78,0.00,,,0.00,,2013-02-28 12:11:00,
2013-02-28 06:22:00,40.0,34.0,30.12,NW,311,0.0,2.0,78,0.00,,,0.00,,2013-02-28 12:22:00,
2013-02-28 06:32:00,40.0,34.0,30.12,NW,307,0.0,2.0,78,0.00,,,0.00,,2013-02-28 12:32:00,
2013-02-28 06:42:00,40.0,34.0,30.12,NW,307,0.0,2.0,78,0.00,,,0.00,,2013-02-28 12:42:00,
2013-02-28 06:52:00,40.0,34.0,30.13,NW,320,1.0,3.0,78,0.00,,,0.00,,2013-02-28 12:52:00,
2013-02-28 07:02:00,40.0,34.0,30.13,NW,321,1.0,3.0,79,0.00,,,0.00,,2013-02-28 13:02:00,
2013-02-28 07:11:00,40.0,34.0,30.13,NW,321,1.0,3.0,79,0.00,,,0.00,,2013-02-28 13:11:00,
2013-02-28 07:22:00,40.0,34.0,30.14,NW,318,0.0,3.0,79,0.00,,,0.00,,2013-02-28 13:22:00,
2013-02-28 07:32:00,41.0,34.0,30.14,NW,314,0.0,3.0,76,0.00,,,0.00,,2013-02-28 13:32:00,
2013-02-28 07:42:00,41.0,34.0,30.14,NW,314,0.0,3.0,76,0.00,,,0.00,,2013-02-28 13:42:00,
2013-02-28 07:52:00,42.0,35.0,30.16,NNW,333,1.0,4.0,76,0.00,,,0.00,,2013-02-28 13:52:00,
2013-02-28 08:01:00,43.0,35.0,30.17,NW,305,1.0,4.0,72,0.00,,,0.00,,2013-02-28 14:01:00,
2013-02-28 08:11:00,43.0,35.0,30.17,NW,305,1.0,4.0,72,0.00,,,0.00,,2013-02-28 14:11:00,
2013-02-28 08:22:00,43.0,35.0,30.17,NW,322,1.0,4.0,72,0.00,,,0.00,,2013-02-28 14:22:00,
2013-02-28 08:32:00,43.0,35.0,30.17,NW,322,1.0,4.0,72,0.00,,,0.00,,2013-02-28 14:32:00,
2013-02-28 08:42:00,43.0,35.0,30.17,NW,322,1.0,4.0,72,0.00,,,0.00,,2013-02-28 14:42:00,
2013-02-28 08:52:00,44.0,36.0,30.18,WNW,297,1.0,4.0,74,0.00,,,0.00,,2013-02-28 14:52:00,
2013-02-28 09:02:00,43.0,35.0,30.18,NW,314,1.0,6.0,72,0.00,,,0.00,,2013-02-28 15:02:00,
2013-02-28 09:11:00,43.0,35.0,30.18,NW,314,1.0,6.0,72,0.00,,,0.00,,2013-02-28 15:11:00,
2013-02-28 09:21:00,44.0,35.0,30.19,WSW,237,0.0,3.0,70,0.00,,,0.00,,2013-02-28 15:21:00,
2013-02-28 09:32:00,45.0,35.0,30.19,NNW,337,2.0,5.0,68,0.00,,,0.00,,2013-02-28 15:32:00,
2013-02-28 09:42:00,45.0,35.0,30.19,NNW,337,2.0,5.0,68,0.00,,,0.00,,2013-02-28 15:42:00,
2013-02-28 09:52:00,45.0,35.0,30.20,West,269,1.0,4.0,67,0.00,,,0.00,,2013-02-28 15:52:00,
2013-02-28 10:01:00,45.0,34.0,30.19,West,260,1.0,7.0,64,0.00,,,0.00,,2013-02-28 16:01:00,
2013-02-28 10:11:00,45.0,34.0,30.19,West,260,1.0,7.0,64,0.00,,,0.00,,2013-02-28 16:11:00,
2013-02-28 10:22:00,46.0,34.0,30.19,North,358,1.0,3.0,63,0.00,,,0.00,,2013-02-28 16:22:00,
2013-02-28 10:32:00,46.0,33.0,30.19,NW,309,2.0,5.0,60,0.00,,,0.00,,2013-02-28 16:32:00,
2013-02-28 10:42:00,46.0,33.0,30.19,NW,309,2.0,5.0,60,0.00,,,0.00,,2013-02-28 16:42:00,
2013-02-28 10:52:00,47.0,33.0,30.19,WNW,294,1.0,6.0,58,0.00,,,0.00,,2013-02-28 16:52:00,
2013-02-28 11:02:00,47.0,32.0,30.19,NW,314,2.0,6.0,55,0.00,,,0.00,,2013-02-28 17:02:00,
2013-02-28 11:11:00,48.0,32.0,30.19,NW,315,3.0,7.0,53,0.00,,,0.00,,2013-02-28 17:11:00,
2013-02-28 11:22:00,48.0,32.0,30.19,NW,315,3.0,7.0,53,0.00,,,0.00,,2013-02-28 17:22:00,
2013-02-28 11:32:00,49.0,31.0,30.18,NNE,16,2.0,8.0,50,0.00,,,0.00,,2013-02-28 17:32:00,
2013-02-28 11:42:00,49.0,31.0,30.18,NNE,16,2.0,8.0,50,0.00,,,0.00,,2013-02-28 17:42:00,
2013-02-28 11:52:00,48.0,31.0,30.18,NW,325,2.0,6.0,52,0.00,,,0.00,,2013-02-28 17:52:00,
2013-02-28 12:02:00,48.0,29.0,30.17,NW,316,4.0,8.0,48,0.00,,,0.00,,2013-02-28 18:02:00,
2013-02-28 12:11:00,48.0,29.0,30.17,NW,316,4.0,8.0,48,0.00,,,0.00,,2013-02-28 18:11:00,
2013-02-28 12:22:00,48.0,30.0,30.16,West,276,2.0,5.0,49,0.00,,,0.00,,2013-02-28 18:22:00,
2013-02-28 12:32:00,48.0,30.0,30.16,NW,311,2.0,7.0,49,0.00,,,0.00,,2013-02-28 18:32:00,
2013-02-28 12:42:00,48.0,30.0,30.16,NW,311,2.0,7.0,49,0.00,,,0.00,,2013-02-28 18:42:00,
2013-02-28 12:52:00,49.0,30.0,30.16,NNW,328,2.0,5.0,48,0.00,,,0.00,,2013-02-28 18:52:00,
2013-02-28 13:01:00,49.0,30.0,30.16,NNW,328,2.0,5.0,48,0.00,,,0.00,,2013-02-28 19:01:00,
2013-02-28 13:11:00,49.0,30.0,30.16,NNW,328,2.0,5.0,48,0.00,,,0.00,,2013-02-28 19:11:00,
2013-02-28 13:21:00,49.0,32.0,30.15,NW,305,1.0,5.0,51,0.00,,,0.00,,2013-02-28 19:21:00,
2013-02-28 13:32:00,49.0,31.0,30.14,NW,323,1.0,4.0,50,0.00,,,0.00,,2013-02-28 19:32:00,
2013-02-28 13:42:00,49.0,31.0,30.14,NW,323,1.0,4.0,50,0.00,,,0.00,,2013-02-28 19:42:00,
2013-02-28 13:51:00,49.0,31.0,30.13,WNW,283,1.0,4.0,50,0.00,,,0.00,,2013-02-28 19:51:00,
2013-02-28 14:01:00,49.0,33.0,30.12,NW,314,1.0,5.0,53,0.00,,,0.00,,2013-02-28 20:01:00,
2013-02-28 14:12:00,49.0,33.0,30.12,NW,314,1.0,5.0,53,0.00,,,0.00,,2013-02-28 20:12:00,
2013-02-28 14:22:00,49.0,31.0,30.12,NNE,18,1.0,5.0,50,0.00,,,0.00,,2013-02-28 20:22:00,
2013-02-28 14:32:00,49.0,31.0,30.11,NW,311,1.0,5.0,50,0.00,,,0.00,,2013-02-28 20:32:00,
2013-02-28 14:42:00,49.0,31.0,30.11,NW,311,1.0,5.0,50,0.00,,,0.00,,2013-02-28 20:42:00,
2013-02-28 14:52:00,50.0,31.0,30.12,WNW,294,1.0,5.0,48,0.00,,,0.00,,2013-02-28 20:52:00,
2013-02-28 15:02:00,50.0,32.0,30.11,NW,320,1.0,8.0,49,0.00,,,0.00,,2013-02-28 21:02:00,
2013-02-28 15:11:00,50.0,32.0,30.11,NW,320,1.0,8.0,49,0.00,,,0.00,,2013-02-28 21:11:00,
2013-02-28 15:22:00,50.0,32.0,30.11,NW,324,1.0,3.0,50,0.00,,,0.00,,2013-02-28 21:22:00,
2013-02-28 15:32:00,50.0,31.0,30.10,NNW,338,1.0,4.0,48,0.00,,,0.00,,2013-02-28 21:32:00,
2013-02-28 15:42:00,50.0,31.0,30.10,NNW,338,1.0,4.0,48,0.00,,,0.00,,2013-02-28 21:42:00,
2013-02-28 15:52:00,51.0,33.0,30.10,NNE,29,1.0,4.0,49,0.00,,,0.00,,2013-02-28 21:52:00,
2013-02-28 16:01:00,51.0,31.0,30.10,NW,321,1.0,3.0,47,0.00,,,0.00,,2013-02-28 22:01:00,
2013-02-28 16:11:00,51.0,31.0,30.10,NW,321,1.0,3.0,47,0.00,,,0.00,,2013-02-28 22:11:00,
2013-02-28 16:21:00,52.0,32.0,30.09,NW,323,2.0,4.0,46,0.00,,,0.00,,2013-02-28 22:21:00,
2013-02-28 16:32:00,51.0,29.0,30.09,NW,322,2.0,6.0,42,0.00,,,0.00,,2013-02-28 22:32:00,
2013-02-28 16:42:00,51.0,29.0,30.09,NW,322,2.0,6.0,42,0.00,,,0.00,,2013-02-28 22:42:00,
2013-02-28 16:52:00,51.0,29.0,30.09,NNW,336,2.0,8.0,42,0.00,,,0.00,,2013-02-28 22:52:00,
2013-02-28 17:01:00,51.0,29.0,30.09,NW,323,0.0,4.0,43,0.00,,,0.00,,2013-02-28 23:01:00,
2013-02-28 17:11:00,51.0,29.0,30.09,NW,323,0.0,4.0,43,0.00,,,0.00,,2013-02-28 23:11:00,
2013-02-28 17:22:00,51.0,29.0,30.09,NW,323,0.0,4.0,43,0.00,,,0.00,,2013-02-28 23:22:00,
2013-02-28 17:31:00,51.0,31.0,30.10,NW,314,1.0,5.0,46,0.00,,,0.00,,2013-02-28 23:31:00,
2013-02-28 17:41:00,51.0,31.0,30.10,NW,314,1.0,5.0,46,0.00,,,0.00,,2013-02-28 23:41:00,
2013-02-28 17:53:00,50.0,31.0,30.10,NW,322,0.0,3.0,47,0.00,,,0.00,,2013-02-28 23:53:00,
2013-02-28 18:01:00,50.0,32.0,30.10,WNW,290,0.0,2.0,50,0.00,,,0.00,,2013-03-01 00:01:00,
2013-02-28 18:11:00,50.0,32.0,30.10,WNW,290,0.0,2.0,50,0.00,,,0.00,,2013-03-01 00:11:00,
2013-02-28 18:22:00,48.0,31.0,30.10,NW,314,0.0,1.0,51,0.00,,,0.00,,2013-03-01 00:22:00,
2013-02-28 18:32:00,48.0,32.0,30.11,NW,314,0.0,0.0,53,0.00,,,0.00,,2013-03-01 00:32:00,
2013-02-28 18:42:00,48.0,32.0,30.11,NW,314,0.0,0.0,53,0.00,,,0.00,,2013-03-01 00:42:00,
2013-02-28 18:51:00,47.0,32.0,30.11,NW,304,0.0,1.0,55,0.00,,,0.00,,2013-03-01 00:51:00,
2013-02-28 19:01:00,45.0,36.0,30.11,NW,305,0.0,0.0,70,0.00,,,0.00,,2013-03-01 01:01:00,
2013-02-28 19:11:00,45.0,36.0,30.11,NW,305,0.0,0.0,70,0.00,,,0.00,,2013-03-01 01:11:00,
2013-02-28 19:21:00,43.0,35.0,30.11,NW,305,0.0,0.0,74,0.00,,,0.00,,2013-03-01 01:21:00,
2013-02-28 19:32:00,42.0,34.0,30.12,NW,304,0.0,0.0,73,0.00,,,0.00,,2013-03-01 01:32:00,
2013-02-28 19:42:00,42.0,34.0,30.12,NW,304,0.0,0.0,73,0.00,,,0.00,,2013-03-01 01:42:00,
2013-02-28 19:51:00,42.0,36.0,30.12,NW,304,0.0,0.0,78,0.00,,,0.00,,2013-03-01 01:51:00,
2013-02-28 20:01:00,42.0,35.0,30.13,NW,304,0.0,0.0,75,0.00,,,0.00,,2013-03-01 02:01:00,
2013-02-28 20:11:00,42.0,35.0,30.13,NW,304,0.0,0.0,75,0.00,,,0.00,,2013-03-01 02:11:00,
2013-02-28 20:21:00,42.0,34.0,30.13,NW,304,0.0,0.0,74,0.00,,,0.00,,2013-03-01 02:21:00,
2013-02-28 20:32:00,42.0,36.0,30.14,NW,304,0.0,0.0,78,0.00,,,0.00,,2013-03-01 02:32:00,
2013-02-28 20:42:00,42.0,36.0,30.14,NW,304,0.0,0.0,78,0.00,,,0.00,,2013-03-01 02:42:00,
2013-02-28 20:52:00,42.0,38.0,30.14,NW,305,0.0,0.0,84,0.00,,,0.00,,2013-03-01 02:52:00,
2013-02-28 21:02:00,42.0,38.0,30.15,NW,304,0.0,0.0,85,0.00,,,0.00,,2013-03-01 03:02:00,
2013-02-28 21:11:00,42.0,38.0,30.15,NW,304,0.0,0.0,85,0.00,,,0.00,,2013-03-01 03:11:00,
2013-02-28 21:21:00,42.0,38.0,30.15,NW,305,0.0,0.0,86,0.00,,,0.00,,2013-03-01 03:21:00,
2013-02-28 21:32:00,42.0,38.0,30.15,NW,305,0.0,0.0,86,0.00,,,0.00,,2013-03-01 03:32:00,
2013-02-28 21:42:00,42.0,38.0,30.15,NW,305,0.0,0.0,86,0.00,,,0.00,,2013-03-01 03:42:00,
2013-02-28 21:52:00,42.0,38.0,30.15,NW,305,0.0,0.0,86,0.00,,,0.00,,2013-03-01 03:52:00,
2013-02-28 22:01:00,42.0,38.0,30.15,NW,305,0.0,0.0,87,0.00,,,0.00,,2013-03-01 04:01:00,
2013-02-28 22:11:00,42.0,38.0,30.15,NW,305,0.0,0.0,87,0.00,,,0.00,,2013-03-01 04:11:00,
2013-02-28 22:21:00,43.0,37.0,30.16,WNW,288,0.0,1.0,78,0.00,,,0.00,,2013-03-01 04:21:00,
2013-02-28 22:32:00,43.0,36.0,30.16,WNW,288,0.0,0.0,75,0.00,,,0.00,,2013-03-01 04:32:00,
2013-02-28 22:42:00,43.0,36.0,30.16,WNW,288,0.0,0.0,75,0.00,,,0.00,,2013-03-01 04:42:00,
2013-02-28 22:52:00,44.0,36.0,30.15,WNW,288,0.0,0.0,74,0.00,,,0.00,,2013-03-01 04:52:00,
2013-02-28 23:02:00,43.0,34.0,30.15,WNW,288,0.0,0.0,70,0.00,,,0.00,,2013-03-01 05:02:00,
2013-02-28 23:11:00,43.0,34.0,30.15,WNW,288,0.0,0.0,70,0.00,,,0.00,,2013-03-01 05:11:00,
2013-02-28 23:22:00,42.0,36.0,30.15,WNW,288,0.0,0.0,79,0.00,,,0.00,,2013-03-01 05:22:00,
2013-02-28 23:32:00,41.0,36.0,30.15,WNW,288,0.0,0.0,82,0.00,,,0.00,,2013-03-01 05:32:00,
2013-02-28 23:42:00,41.0,36.0,30.15,WNW,288,0.0,0.0,82,0.00,,,0.00,,2013-03-01 05:42:00,
2013-02-28 23:52:00,40.0,35.0,30.15,WNW,288,0.0,0.0,82,0.00,,,0.00,,2013-03-01 05:52:00,